Weather History for Blair, NE

Change the Weather History Date:

Saturday, November 5, 2011

  Actual Average (KOMA) Record (KOMA)
Temperature  
Mean Temperature 51 °F 45 °F  
Max Temperature 60 °F 55 °F 80 °F (1945)
Min Temperature 42 °F 34 °F 15 °F (1877)
Degree Days  
Heating Degree Days 14 20  
Month to date heating degree days 97  
Since 1 July heating degree days 582  
Cooling Degree Days 0 0  
Month to date cooling degree days 0  
Year to date cooling degree days 1112  
Growing Degree Days 1 (Base 50)    
Moisture  
Dew Point 40 °F    
Average Humidity 69    
Maximum Humidity 87    
Minimum Humidity 45    
Precipitation  
Precipitation 0.00 in 0.07 in 1.00 in (2013)
Month to date precipitation 0.32  
Year to date precipitation 28.26  
Snow  
Snow 0.00 in 0.10 in - ()
Month to date snowfall 0.2  
Since 1 July snowfall 0.5  
Snow Depth -    
Sea Level Pressure  
Sea Level Pressure 29.79 in    
Wind  
Wind Speed 19 mph (SSE)    
Max Wind Speed 29 mph    
Max Gust Speed 37 mph    
Visibility 10 miles    
Events      
T = Trace of Precipitation, MM = Missing Value Source: NWS Daily Summary

Daily Weather History Graph

Daily Weather History Graph

Search for Another Location

Airport:

Trip Planner

Search our weather history database for the weather conditions in past years. The results will help you decide how hot, cold, wet, or windy it might be!

Date:

Astronomy

Nov. 05, 2011 Rise Set
Actual Time 8:00 AM CDT 6:14 PM CDT
Civil Twilight 7:31 AM CDT 6:43 PM CDT
Nautical Twilight 6:58 AM CDT 7:16 PM CDT
Astronomical Twilight 6:26 AM CDT 7:49 PM CDT
Moon 3:36 PM CDT (11/5) 3:08 AM CDT (11/5)
Length of Visible Light 11h 12m
Length of Day
10h 14m
Waxing Gibbous, 78% of the Moon is Illuminated
Nov 5
Waxing Gibbous
Nov 10
Full
Nov 18
Last Quarter
Nov 25
New
Dec 2
First Quarter

Hourly Weather History & Observations

Time (CDT) Temp. Windchill Dew Point Humidity Pressure Visibility Wind Dir Wind Speed Gust Speed Precip Events Conditions
12:15 AM 44.6 °F 37.4 °F 41.0 °F 87% 29.98 in 10.0 mi SSE 16.1 mph 23.0 mph N/A   Clear
12:35 AM 44.6 °F 37.8 °F 41.0 °F 87% 29.97 in 10.0 mi SSE 15.0 mph 21.9 mph N/A   Clear
12:55 AM 44.6 °F 37.2 °F 41.0 °F 87% 29.97 in 10.0 mi SSE 17.3 mph 24.2 mph N/A   Clear
1:15 AM 44.6 °F 37.8 °F 41.0 °F 87% 29.96 in 10.0 mi SSE 15.0 mph - N/A   Clear
1:35 AM 44.6 °F 37.8 °F 41.0 °F 87% 29.96 in 10.0 mi SSE 15.0 mph - N/A   Clear
1:55 AM 44.6 °F 37.4 °F 41.0 °F 87% 29.96 in 10.0 mi SSE 16.1 mph 20.7 mph N/A   Clear
2:55 AM 44.6 °F 38.4 °F 41.0 °F 87% 29.94 in 7.0 mi SSE 12.7 mph 20.7 mph N/A   Clear
3:15 AM 44.6 °F 38.1 °F 41.0 °F 87% 29.93 in 10.0 mi SSE 13.8 mph - N/A   Clear
3:35 AM 44.6 °F 38.4 °F 41.0 °F 87% 29.93 in 10.0 mi SSE 12.7 mph - N/A   Clear
3:55 AM 44.6 °F 37.8 °F 41.0 °F 87% 29.92 in 10.0 mi SSE 15.0 mph - N/A   Clear
4:35 AM 44.6 °F 38.4 °F 41.0 °F 87% 29.91 in 7.0 mi SSE 12.7 mph 18.4 mph N/A   Clear
4:55 AM 44.6 °F 37.4 °F 41.0 °F 87% 29.91 in 7.0 mi SSE 16.1 mph - N/A   Clear
5:15 AM 44.6 °F 36.9 °F 39.2 °F 81% 29.90 in 7.0 mi SSE 18.4 mph 23.0 mph N/A   Clear
5:35 AM 44.6 °F 36.9 °F 39.2 °F 81% 29.89 in 10.0 mi South 18.4 mph 26.5 mph N/A   Clear
5:55 AM 44.6 °F 36.6 °F 39.2 °F 81% 29.88 in 10.0 mi SSE 19.6 mph - N/A   Clear
6:15 AM 44.6 °F 37.2 °F 39.2 °F 81% 29.88 in 10.0 mi SSE 17.3 mph 25.3 mph N/A   Clear
6:35 AM 44.6 °F 37.2 °F 39.2 °F 81% 29.87 in 10.0 mi SSE 17.3 mph 20.7 mph N/A   Clear
6:55 AM 44.6 °F 37.4 °F 37.4 °F 76% 29.87 in 10.0 mi SSE 16.1 mph - N/A   Clear
7:15 AM 42.8 °F 35.1 °F 37.4 °F 81% 29.86 in 10.0 mi SSE 16.1 mph 21.9 mph N/A   Clear
7:35 AM 44.6 °F 37.2 °F 37.4 °F 76% 29.85 in 10.0 mi SSE 17.3 mph 23.0 mph N/A   Clear
7:55 AM 44.6 °F 38.1 °F 37.4 °F 76% 29.85 in 10.0 mi SSE 13.8 mph 19.6 mph N/A   Clear
8:15 AM 44.6 °F 37.2 °F 37.4 °F 76% 29.85 in 10.0 mi SSE 17.3 mph 24.2 mph N/A   Clear
8:35 AM 44.6 °F 36.9 °F 37.4 °F 76% 29.85 in 10.0 mi SSE 18.4 mph 25.3 mph N/A   Clear
8:55 AM 44.6 °F 36.9 °F 37.4 °F 76% 29.85 in 10.0 mi SSE 18.4 mph 24.2 mph N/A   Clear
9:15 AM 46.4 °F 38.7 °F 37.4 °F 71% 29.85 in 10.0 mi SSE 20.7 mph 26.5 mph N/A   Clear
9:35 AM 46.4 °F 38.3 °F 39.2 °F 76% 29.85 in 10.0 mi South 23.0 mph 31.1 mph N/A   Clear
9:55 AM 48.2 °F - 39.2 °F 71% 29.84 in 10.0 mi South 20.7 mph 31.1 mph N/A   Clear
10:35 AM 50.0 °F - 37.4 °F 62% 29.83 in 10.0 mi South 25.3 mph 33.4 mph N/A   Clear
11:15 AM 51.8 °F - 37.4 °F 58% 29.82 in 10.0 mi South 25.3 mph 36.8 mph N/A   Clear
11:35 AM 51.8 °F - 37.4 °F 58% 29.81 in 10.0 mi SSE 21.9 mph 34.5 mph N/A   Clear
11:55 AM 53.6 °F - 39.2 °F 58% 29.81 in 10.0 mi SSE 24.2 mph 29.9 mph N/A   Clear
12:15 PM 53.6 °F - 39.2 °F 58% 29.81 in 10.0 mi South 27.6 mph 33.4 mph N/A   Clear
12:35 PM 55.4 °F - 39.2 °F 54% 29.80 in 10.0 mi SSE 27.6 mph 36.8 mph N/A   Clear
12:55 PM 55.4 °F - 41.0 °F 58% 29.79 in 10.0 mi SSE 27.6 mph 34.5 mph N/A   Clear
1:15 PM 59.0 °F - 39.2 °F 48% 29.78 in 10.0 mi SSE 24.2 mph 32.2 mph N/A   Clear
1:35 PM 59.0 °F - 37.4 °F 45% 29.76 in 10.0 mi South 24.2 mph 33.4 mph N/A   Clear
1:55 PM 59.0 °F - 37.4 °F 45% 29.75 in 10.0 mi SSE 28.8 mph 34.5 mph N/A   Clear
2:35 PM 59.0 °F - 37.4 °F 45% 29.73 in 10.0 mi SSE 21.9 mph 35.7 mph N/A   Clear
2:55 PM 60.8 °F - 39.2 °F 45% 29.71 in 10.0 mi SSE 24.2 mph 33.4 mph N/A   Clear
3:15 PM 60.8 °F - 39.2 °F 45% 29.71 in 10.0 mi SSE 25.3 mph 31.1 mph N/A   Clear
3:35 PM 59.0 °F - 37.4 °F 45% 29.69 in 10.0 mi SSE 25.3 mph 34.5 mph N/A   Clear
3:55 PM 59.0 °F - 39.2 °F 48% 29.68 in 10.0 mi SSE 18.4 mph 32.2 mph N/A   Clear
4:15 PM 57.2 °F - 41.0 °F 55% 29.67 in 10.0 mi SE 18.4 mph 28.8 mph N/A   Clear
4:35 PM 55.4 °F - 41.0 °F 58% 29.67 in 10.0 mi SSE 20.7 mph 26.5 mph N/A   Clear
4:55 PM 55.4 °F - 41.0 °F 58% 29.66 in 10.0 mi SE 25.3 mph 32.2 mph N/A   Clear
5:15 PM 55.4 °F - 41.0 °F 58% 29.65 in 10.0 mi SSE 25.3 mph 35.7 mph N/A   Clear
5:35 PM 55.4 °F - 41.0 °F 58% 29.65 in 10.0 mi SE 21.9 mph 29.9 mph N/A   Clear
5:55 PM 55.4 °F - 41.0 °F 58% 29.65 in 10.0 mi SE 20.7 mph 33.4 mph N/A   Clear
6:35 PM 53.6 °F - 42.8 °F 67% 29.62 in 10.0 mi SE 21.9 mph 28.8 mph N/A   Clear
6:55 PM 53.6 °F - 42.8 °F 67% 29.62 in 10.0 mi SE 23.0 mph 32.2 mph N/A   Clear
7:15 PM 53.6 °F - 42.8 °F 67% 29.62 in 10.0 mi SE 24.2 mph 29.9 mph N/A   Clear
7:35 PM 53.6 °F - 42.8 °F 67% 29.61 in 10.0 mi SE 20.7 mph 31.1 mph N/A   Clear
7:55 PM 53.6 °F - 42.8 °F 67% 29.63 in 10.0 mi SSE 20.7 mph 34.5 mph N/A   Clear
8:15 PM 53.6 °F - 42.8 °F 67% 29.63 in 10.0 mi SSE 24.2 mph 35.7 mph N/A   Clear
8:35 PM 53.6 °F - 42.8 °F 67% 29.64 in 10.0 mi SSE 20.7 mph 32.2 mph N/A   Clear
8:55 PM 51.8 °F - 42.8 °F 71% 29.65 in 10.0 mi SSE 19.6 mph 27.6 mph N/A   Clear
9:15 PM 51.8 °F - 42.8 °F 71% 29.65 in 10.0 mi SSE 23.0 mph 28.8 mph N/A   Clear
9:35 PM 51.8 °F - 42.8 °F 71% 29.65 in 10.0 mi SSE 19.6 mph 31.1 mph N/A   Clear
9:55 PM 51.8 °F - 42.8 °F 71% 29.65 in 10.0 mi SSE 19.6 mph 29.9 mph N/A   Clear
10:15 PM 51.8 °F - 42.8 °F 71% 29.64 in 10.0 mi SSE 19.6 mph 32.2 mph N/A   Clear
10:35 PM 51.8 °F - 42.8 °F 71% 29.64 in 10.0 mi SSE 18.4 mph 31.1 mph N/A   Clear
11:15 PM 51.8 °F - 42.8 °F 71% 29.62 in 10.0 mi SSE 19.6 mph 28.8 mph N/A   Clear
11:35 PM 51.8 °F - 42.8 °F 71% 29.62 in 10.0 mi SSE 24.2 mph 33.4 mph N/A   Clear
11:55 PM 51.8 °F - 42.8 °F 71% 29.62 in 10.0 mi SSE 19.6 mph 33.4 mph N/A   Clear